Location: Malvern Link
(52.1333°N, 2.3000°W)
Time: 06:50:41
(UTC+00:00)

Cosmos 2297 Rocket - Pass Details

Date: 18 September 2020
Orbit: 838 x 845 km, 71.0° (Epoch: 18 October)

Event Time Altitude Azimuth Distance (km) Brightness Sun altitude
Rises 19:01:33 0° 248° (WSW) 3,392 6.4 -7.7°
Reaches altitude 10° 19:04:19 10° 260° (W) 2,462 5.9 -8.2°
Maximum altitude 19:09:12 29° 319° (NW) 1,508 4.2 -8.9°
Drops below altitude 10° 19:14:06 10° 19° (NNE) 2,476 4.6 -9.6°
Sets 19:16:54 0° 31° (NNE) 3,415 5.2 -10.0°
